YAOGAN-35 A

导读

YAOGAN-35 A(遥感三十五号A星)是中国研制的遥感卫星,于北京时间2021年11月6日在西昌卫星发射中心,由长征二号丁运载火箭以一箭三星方式发射,顺利进入预定轨道。该卫星主要服务于科学试验、国土资源普查、农产品估产及防灾减灾等领域,是中国遥感卫星体系的重要组成部分,此次任务是长征系列运载火箭第396次飞行。

Basic Information
目录编号:
49390
目录名称:
YAOGAN-35 A
国际标识:
2021-101A
轨道中心:
EARTH
卫星名称:
YAOGAN-35 A
卫星全名:
--
卫星状态:
在轨 (已飞行1763 天)
发射日期:
2021-11-06 UTC
国别 :
中国 (CN)
星等 :
--
Orbit Information
数据来源 国际轨道数据 AOE轨道数据
星历时间 2026-09-04T11:22:11+0800
7小时前
查看轨道信息
2026-08-31T11:00:00+0800
4天前
查看轨道信息
半长轴 6861.103km 6861.313km
偏心率 0.0006036 0.0006563
轨道倾角 34.991° 34.990°
近地点辐角 359.843° 321.723°
升交点赤经 136.200° 161.633°
平近点角 0.229° 239.815°
近地点 478.824km 478.672km
远地点 487.108km 487.68km
周期 94.265分钟 94.269分钟
每日圈数 15.276079 15.275378
Detailed Information
使用方式:
暂无
2D Orbit Map
3D Orbit Map
Orbit Altitude Analysis Chart
Orbit Inclination Analysis Chart
Orbit Comprehensive Analysis Chart
View Comprehensive Chart
Conjunction Data List
Event ID Objects TCA Miss Dist (km) Collision Risk Probability Collision Risk Index (CRI) Action
CDM_260901-015904-939005-709325
2026-09-01T
01:59:41+0000
0.778 km
远距离
1.970501E-5 中风险 0.61
CDM_260905-001604-939006-306521
2026-09-05T
00:16:21+0000
1.227 km
极远距离
7.472074E-6 低风险 0.52
CDM_260904-035704-939006-378323
2026-09-04T
03:57:01+0000
1.078 km
极远距离
4.514584E-6 低风险 0.48
CDM_260905-164404-939006-300121
2026-09-05T
16:44:06+0000
1.701 km
极远距离
2.578098E-6 低风险 0.43
CDM_260905-101904-939006-314821
2026-09-05T
10:19:42+0000
1.717 km
极远距离
1.88239E-6 低风险 0.4
CDM_260901-074304-939006-767722
2026-09-01T
07:43:34+0000
2.496 km
极远距离
1.662217E-6 低风险 0.39
CDM_260905-124804-939006-300121
2026-09-05T
12:48:46+0000
2.327 km
极远距离
1.209758E-6 低风险 0.37
CDM_260906-123404-939006-735121
2026-09-06T
12:34:15+0000
2.685 km
极远距离
1.205678E-6 低风险 0.37
CDM_260903-055304-939005-483523
2026-09-03T
05:53:32+0000
2.398 km
极远距离
1.082001E-6 低风险 0.36
CDM_260901-042004-939005-709324
2026-09-01T
04:20:54+0000
2.044 km
极远距离
9.839447E-7 极低风险 0.35